User: anonymous   Login
Location: Paddlesworth
(51.1000°N, 1.1333°E)
Time: 23:39:24
(UTC+00:00)
Language:

Okean 1 - Orbit

View from above orbital plane
View from above orbital plane
View from above satellite
View from above satellite

Ground track
Ground track

The orbit data is extracted from the following two-line orbital elements,

1 19274U 88056A   21204.51453681  .00000200  00000-0  11444-4 0  9992
2 19274  82.5061 134.3352 0010569 237.3260 122.6948 15.06778618779130
Epoch (UTC): 23 July 2021 12:20:55
Eccentricity: 0.0010569
inclination: 82.5061°
perigee height: 539 km
apogee height: 553 km
right ascension of ascending node: 134.3352°
argument of perigee: 237.3260°
revolutions per day: 15.06778618
mean anomaly at epoch: 122.6948°
orbit number at epoch: 77913

The dashed part of the orbit path shows where the satellite is in the earth's shadow,  

DLR